sat.trackr.live / text

‹ back to catalog

STARLINK-1730

NORAD 46563 · 2020-070AH

PAYLOAD ACTIVE UNKNOWN

§ Identity

Operator
Country
US
Launch date
2020-10-06
Launch site
AFETR
Launch vehicle
Mass (kg)
RCS (m²)

Purposes: comms

External: N2YO · Heavens-Above · Gunter

§ Orbital elements

Epoch: 2026-09-20T00:00:02.998944Z

Period
91.07 min
Inclination
53.0148°
Eccentricity
0.0004092
Mean motion
15.81276696 rev/d
Perigee alt
324.1 km
Apogee alt
329.6 km
Semi-major
6,705.0 km
B*
4.3153e-4
RAAN
252.5092°
Arg perigee
39.6163°
Mean anomaly
100.4513°
Rev number
601

§ Raw data

STARLINK-17301 46563U 20070AH  26263.00003471  .00086996  00000+0  43153-3 0  99932 46563  53.0148 252.5092 0004092  39.6163 100.4513 15.81276696  6017

JSON: /api/v1/satellites/46563 · /tle

For live sub-satellite position, see the globe view (requires WebGL).

§ Visibility from observer

Set your observer location to see the next 7 days of passes ≥ 10°. The values pass through the URL so the page stays shareable.

No JS? Fill the form by hand. The geolocation button needs JavaScript.